TimeAKST,TemperatureF,Dew PointF,Humidity,Sea Level PressureIn,VisibilityMPH,Wind Direction,Wind SpeedMPH,Gust SpeedMPH,PrecipitationIn,Events,Conditions,WindDirDegrees,DateUTC
12:01 AM,-20.9,-26.0,77,30.62,6.0,East,17.3,-,N/A,,Haze,90,2013-03-04 09:01:00
1:01 AM,-20.9,-26.0,77,30.61,7.0,East,17.3,-,N/A,,Clear,90,2013-03-04 10:01:00
2:01 AM,-20.9,-26.0,77,30.61,7.0,East,18.4,-,N/A,,Clear,90,2013-03-04 11:01:00
3:01 AM,-20.9,-26.0,77,30.61,5.0,East,18.4,-,N/A,,Haze,90,2013-03-04 12:01:00
4:01 AM,-20.9,-25.1,81,30.61,6.0,East,18.4,-,N/A,,Clear,90,2013-03-04 13:01:00
5:01 AM,-20.0,-25.1,78,30.62,7.0,East,18.4,-,N/A,,Clear,90,2013-03-04 14:01:00
6:01 AM,-20.0,-25.1,78,30.62,10.0,East,18.4,-,N/A,,Clear,90,2013-03-04 15:01:00
7:01 AM,-20.9,-26.0,77,30.63,10.0,East,17.3,-,N/A,,Clear,90,2013-03-04 16:01:00
8:01 AM,-20.9,-26.0,77,30.62,9.0,East,17.3,-,N/A,,Clear,90,2013-03-04 17:01:00
9:01 AM,-20.0,-25.1,78,30.62,7.0,East,18.4,-,N/A,,Clear,100,2013-03-04 18:01:00
10:01 AM,-18.9,-24.0,78,30.63,7.0,East,17.3,-,N/A,,Clear,100,2013-03-04 19:01:00
11:01 AM,-18.0,-23.1,78,30.63,7.0,East,18.4,-,N/A,,Clear,100,2013-03-04 20:01:00
12:01 PM,-18.0,-23.1,78,30.63,3.0,East,23.0,-,N/A,,Haze,100,2013-03-04 21:01:00
1:01 PM,-17.0,-22.0,78,30.63,3.0,East,23.0,-,N/A,,Haze,100,2013-03-04 22:01:00
1:08 PM,-16.6,-22.0,76,30.63,2.5,East,23.0,-,N/A,,Haze,100,2013-03-04 22:08:00
1:49 PM,-16.6,-20.2,84,30.63,2.0,East,24.2,-,N/A,,Mist,100,2013-03-04 22:49:00
2:01 PM,-16.1,-20.9,79,30.63,2.5,East,21.9,-,N/A,,Haze,100,2013-03-04 23:01:00
3:01 PM,-15.0,-20.0,78,30.62,2.0,East,25.3,-,N/A,,Haze,100,2013-03-05 00:01:00
3:27 PM,-14.8,-20.2,77,30.62,1.8,East,24.2,-,N/A,,Haze,100,2013-03-05 00:27:00
4:15 PM,-14.8,-18.4,84,30.62,2.0,East,24.2,-,N/A,,Mist,100,2013-03-05 01:15:00
4:31 PM,-14.8,-18.4,84,30.62,3.0,East,24.2,-,N/A,,Scattered Clouds,100,2013-03-05 01:31:00
4:39 PM,-14.8,-18.4,84,30.62,2.0,East,25.3,-,N/A,,Haze,100,2013-03-05 01:39:00
5:01 PM,-14.1,-18.9,79,30.62,2.5,East,23.0,-,N/A,,Haze,100,2013-03-05 02:01:00
5:09 PM,-14.8,-18.4,84,30.62,3.0,East,23.0,-,N/A,,Haze,100,2013-03-05 02:09:00
6:01 PM,-14.1,-18.9,79,30.63,4.0,East,20.7,-,N/A,,Haze,100,2013-03-05 03:01:00
7:01 PM,-14.1,-18.9,79,30.61,4.0,East,24.2,-,N/A,,Haze,90,2013-03-05 04:01:00
8:01 PM,-15.0,-18.9,82,30.61,3.0,East,21.9,-,N/A,,Mostly Cloudy,100,2013-03-05 05:01:00
9:01 PM,-15.0,-20.0,78,30.60,3.0,East,23.0,-,N/A,,Haze,100,2013-03-05 06:01:00
11:01 PM,-17.0,-22.0,78,30.57,4.0,East,21.9,-,N/A,,Haze,100,2013-03-05 08:01:00